Regional Weather Roundup
Issued by NWS Grand Forks, ND

Home | Current Version | Previous Version | Text Only | Print | Product List | Glossary Off
Versions: 1 2 3 4 5 6 7 8 9 10 11 12 13 14 15 16 17 18 19 20 21 22 23 24 25 26 27 28 29 30 31 32 33 34 35 36 37 38 39 40 41 42 43 44 45 46 47 48 49 50

000
ASUS43 KFGF 271810
RWRFGF
PRAIRIE TO PINES  WEATHER ROUNDUP
NATIONAL WEATHER SERVICE EASTERN NORTH DAKOTA/GRAND FORKS ND
100 PM CDT THU JUL 27 2017

 **SATELLITE DATA USED TO AUGMENT SKY COVER AT AUTOMATED STATIONS**
 *****  WEATHER ACROSS EASTERN NORTH DAKOTA  *****

CITY           SKY/WX    TMP DP  RH WIND       PRES   REMARKS
GRAND FORKS    PTSUNNY   83  58  42 CALM      30.11S
6HR MIN TEMP:  59; 6HR MAX TEMP:  83;

GRAND FRKS AFB FAIR      83  56  39 CALM      30.12F
DEVILS LAKE    FAIR      78  57  48 S7        30.15S
6HR MIN TEMP:  63; 6HR MAX TEMP:  79;

FARGO          FAIR      81  61  50 N8        30.12S
WAHPETON ARPT  FAIR      79  55  44 CALM      30.13S
$$

 ***** WEATHER ACROSS CENTRAL AND WESTERN NORTH DAKOTA  *****

CITY           SKY/WX    TMP DP  RH WIND       PRES   REMARKS
BISMARCK       PTSUNNY   77  62  59 N9        30.14S
6HR MIN TEMP:  65; 6HR MAX TEMP:  79; 6HR PCP: TRACE;

MINOT          FAIR      78  57  48 SE7       30.10F
6HR MIN TEMP:  69; 6HR MAX TEMP:  78;

JAMESTOWN      FAIR      80  56  43 S7        30.14S
6HR MIN TEMP:  56; 6HR MAX TEMP:  82;

MINOT AFB      FAIR      77  57  49 S8        30.09F
GARRISON         N/A     69  62  78 CALM      30.09F
WILLISTON      FAIR      69  59  70 VRB6      30.02F
6HR MIN TEMP:  66; 6HR MAX TEMP:  69; 6HR PCP:  0.19;

DICKINSON      FAIR      81  59  47 E18G25    30.10F
6HR MIN TEMP:  60; 6HR MAX TEMP:  81;

HETTINGER      FAIR      86  55  34 SE16      30.11F
6HR MIN TEMP:  59; 6HR MAX TEMP:  87;

$$

 *****  OTHER AIRPORT OBSERVATIONS IN OUR AREA  *****

CITY           SKY/WX    TMP DP  RH WIND       PRES   REMARKS
WALHALLA       NOT AVBL
GRAFTON AIRPOR MOCLDY    81  61  50 VRB5      30.13S
VALLEY CITY AR FAIR      77  59  53 E6        30.17R
CANDO          NOT AVBL
CAVALIER APRT  FAIR      81  63  54 NW6       30.11S
GWINNER        CLEAR     79  61  53 CALM      30.14S
ROLLA            N/A     77  57  50 SE8G14    30.14F
 ***** THE ABOVE OBSERVATIONS ARE NON NWS ARE NOT QUALITY
       CONTROLLED AND MAY MIS-REPORT RAIN FOR SNOW...
$$

  *****  WEATHER ACROSS NORTHERN MINNESOTA  *****

CITY           SKY/WX    TMP DP  RH WIND       PRES   REMARKS
FLAG ISLAND    FAIR      81  61  50 S3        30.09F
WARROAD        FAIR      79  66  65 E7        30.11S
ROSEAU         FAIR      81  64  57 CALM      30.11S
HALLOCK        FAIR      81  63  54 NW7       30.11S
THF RVR FALLS  FAIR      78  60  53 W7        30.14S
6HR MIN TEMP:  57; 6HR MAX TEMP:  78; 6HR PCP:  0.06;

BAUDETTE       FAIR      76  60  57 NW3       30.11F
6HR MIN TEMP:  58; 6HR MAX TEMP:  80;

WASKISH        FAIR      79  63  57 W7        30.11F
CROOKSTON      FAIR      79  57  47 SW3       30.12F
STEPHEN NDAWN    N/A     81  63  54 NW6         N/A
GREENBUSH NDAW   N/A     79  63  57 W3          N/A
$$
  *****  WEATHER ACROSS CENTRAL AND WEST MINNESOTA  *****

CITY           SKY/WX    TMP DP  RH WIND       PRES   REMARKS
FOSSTON        FAIR      79  72  78 CALM      30.14F
BEMIDJI        FAIR      79  56  44 N6        30.13S
PARK RAPIDS    FAIR      81  57  43 N9        30.12F
6HR MIN TEMP:  62; 6HR MAX TEMP:  81;

ELBOW LAKE     FAIR      77  60  54 CALM      30.13S HAZE
6HR MIN TEMP:  65; 6HR MAX TEMP:  78;

WADENA         FAIR      79  59  50 NW6       30.13S
DETROIT LAKES  FAIR      77  61  57 NW3       30.15S
MOORHEAD       FAIR      79  57  47 CALM      30.13S
FERGUS FALLS   FAIR      79  57  47 CALM      30.11S
MORRIS MN      FAIR      81  59  47 SW3       30.11S
STAPLES        FAIR      81  55  41 CALM      30.12F
$$
  *****  WEATHER ELSEWHERE ACROSS MINNESOTA  *****

CITY           SKY/WX    TMP DP  RH WIND       PRES   REMARKS
DULUTH         FAIR      73  60  63 SE6       30.11S
6HR MIN TEMP:  62; 6HR MAX TEMP:  76;

INTRNTL FALLS  PTSUNNY   80  55  42 NW6       30.10F
6HR MIN TEMP:  54; 6HR MAX TEMP:  82;

ELY            FAIR      77  54  44 CALM      30.10F
CLOQUET        FAIR      79  57  47 CALM      30.11S
WHEATON        FAIR      79  57  47 CALM      30.13F
BRAINERD       FAIR      78  58  49 NE6       30.11F
6HR MIN TEMP:  59; 6HR MAX TEMP:  80;

HIBBING        FAIR      77  52  41 N5        30.11S
6HR MIN TEMP:  53; 6HR MAX TEMP:  79;

ALEXANDRIA     FAIR      80  57  45 NE7       30.14F
6HR MIN TEMP:  65; 6HR MAX TEMP:  80;

SAINT CLOUD    FAIR      81  60  48 CALM      30.10F
6HR MIN TEMP:  63; 6HR MAX TEMP:  82;

MINNEAPOLIS    FAIR      84  58  40 VRB3      30.07S
6HR MIN TEMP:  68; 6HR MAX TEMP:  84;

$$

  *****  WEATHER ACROSS SOUTH DAKOTA  *****

CITY           SKY/WX    TMP DP  RH WIND       PRES   REMARKS
SIOUX FALLS    PTSUNNY   81  63  54 VRB6      30.12F
6HR MIN TEMP:  61; 6HR MAX TEMP:  82;

BROOKINGS      PTSUNNY   76  61  59 CALM      30.14F
WATERTOWN      FAIR      81  61  50 CALM      30.13F
6HR MIN TEMP:  58; 6HR MAX TEMP:  81;

HURON          FAIR      81  61  50 E5        30.12F
6HR MIN TEMP:  58; 6HR MAX TEMP:  81;

SISSETON         N/A     80  59  48 VRB3      30.12S
ABERDEEN       FAIR      79  59  50 E6        30.14S
6HR MIN TEMP:  59; 6HR MAX TEMP:  79;

MITCHELL       PTSUNNY   82  62  50 VRB3      30.12F
PIERRE         FAIR      85  53  33 E10G17    30.10F
6HR MIN TEMP:  59; 6HR MAX TEMP:  85;

MOBRIDGE       FAIR      82  63  52 S10       30.10F
RAPID CITY     LGT RAIN  64  59  83 SW18      30.17R
6HR MIN TEMP:  64; 6HR MAX TEMP:  79; 6HR PCP: TRACE;

$$

  *****  SOME WEATHER IN NEARBY STATES *****

CITY           SKY/WX    TMP DP  RH WIND       PRES   REMARKS
GLASGOW MT     FAIR      82  53  36 SE18      29.99F
6HR MIN TEMP:  68; 6HR MAX TEMP:  82;

GREAT FALLS MT FAIR      82  43  25 S3        30.05S
6HR MIN TEMP:  67; 6HR MAX TEMP:  82; 6HR PCP: TRACE;

CHEYENNE WY    FAIR      76  57  51 S12       30.28F
6HR MIN TEMP:  58; 6HR MAX TEMP:  76;

SCOTTSBLUFF NE LGT RAIN  78  65  63 SE20      30.16F
6HR MIN TEMP:  67; 6HR MAX TEMP:  78; 6HR PCP: TRACE;

OMAHA NE       FAIR      83  63  50 N13       30.05F
6HR MIN TEMP:  67; 6HR MAX TEMP:  84;

DES MOINES IA  PTSUNNY   83  66  56 N8        30.00F
6HR MIN TEMP:  72; 6HR MAX TEMP:  84;

DAVENPORT IA   PTSUNNY   81  70  69 NE13      29.98F
6HR MIN TEMP:  70; 6HR MAX TEMP:  83;

CHICAGO IL     PTSUNNY   80  67  64 NE15      29.95S
6HR MIN TEMP:  74; 6HR MAX TEMP:  82;

EAU CLAIRE WI  FAIR      82  59  45 VRB5      30.05S
6HR MIN TEMP:  64; 6HR MAX TEMP:  82;

LA CROSSE WI   FAIR      85  63  47 N9        30.02F
6HR MIN TEMP:  69; 6HR MAX TEMP:  85;

$$

  *****  SOME NATIONAL WEATHER *****

CITY           SKY/WX    TMP DP  RH WIND       PRES   REMARKS
LA GUARDIA NY  CLOUDY    77  68  73 S12       29.94F
6HR MIN TEMP:  70; 6HR MAX TEMP:  78;

RALEIGH NC     PTSUNNY   91  70  49 W10       30.00F HX  96
6HR MIN TEMP:  77; 6HR MAX TEMP:  93;

ATLANTA GA     FAIR      89  71  55 W7        30.04F HX  95
6HR MIN TEMP:  74; 6HR MAX TEMP:  89;

NEW ORLEANS LA FAIR      92  69  47 NW7       30.06F HX  97
6HR MIN TEMP:  78; 6HR MAX TEMP:  92;

OKLAHOMA CITY  PTSUNNY   92  66  42 NW5       29.98F HX  94
6HR MIN TEMP:  78; 6HR MAX TEMP:  93;

ALBUQUERQUE NM PTSUNNY   75  57  53 S8        30.26F
6HR MIN TEMP:  70; 6HR MAX TEMP:  76; 6HR PCP: TRACE;

SALT LAKE CITY FAIR      82  56  40 E5        30.17F
6HR MIN TEMP:  67; 6HR MAX TEMP:  83;

LOS ANGELES CA PTSUNNY   74  65  73 W9        29.96F
6HR MIN TEMP:  67; 6HR MAX TEMP:  74;

BOISE ID       FAIR



USA.gov is the U.S. government's official web portal to all federal, state and local government web resources and services.